星链-2561 (STARLINK-2561 )

导读 | 豆包AI

STARLINK-2561是美国太空探索技术公司星链星座的一员,2021年5月4日发射入轨。它隶属于星链互联网卫星星座项目,旨在为全球提供高速低延迟卫星互联网服务。作为美国批量发射的星链卫星之一,它承担着覆盖盲区、补充星座网络容量的任务,推动全球卫星互联网组网进程。

Basic Information
目录编号:
48403
目录名称:
STARLINK-2561
国际标识:
2021-038BC
轨道中心:
EARTH
卫星名称:
星链-2561
卫星全名:
星链-2561 (STARLINK-2561 )
卫星状态:
已陨落 最后检测时间 2025-03-24
发射日期:
2021-05-04 UTC
国别 :
美国 (US)
星等 :
--
Orbit Information
数据来源 国际轨道数据
星历时间: 2025-03-24T15:08:25+0800
轨道信息已过期355天
半长轴: 6551.362km
偏心率: 0.0000999
轨道倾角: 53.034°
近地点辐角 290.209°
升交点赤经 92.929°
平近点角 190.640°
近地点: 172.572km
远地点: 173.882km
周期: 87.954分钟
每日圈数: 16.372137
Detailed Information
固有亮度:
5
最大亮度:
2.5
卫星平台:
Starlink V1.0
覆盖范围:
全球
运营商:
太空探索技术公司
运营商所在国:
美国
制造商(研发单位):
太空探索技术公司
制造商所在国:
美国
使用方式:
暂无
Satellite Introduction
星链(Starlink)计划是由太空探索技术公司(SpaceX)提出的一个巨型低轨卫星互联网星座项目,计划在2019年至2024年间在太空搭建由约1.2万颗卫星组成的“星链”网络,其中1584颗将部署在地球上空550千米处的近地轨道,并从2020年开始工作。该卫星仍在工作。